#timestamp,LO_Frequency,Hit,StdDev 
1518206415.7,286046998.8,N
1518206435.5,286047000.1,N
1518206455.4,286047000.2,N
1518206475.2,286046998.1,N
1518206495.0,286046998.7,N
1518206495.9,286046998.7,N
1518206515.8,286046998.5,N
1518206535.6,286046998.1,N
1518206555.4,286046996.9,N
1518206575.3,286046997.5,N
1518206595.1,286046997.2,N
1518206615.9,286046998.3,N
1518206635.7,286047000.8,N
1518206655.5,286047002.6,N
1518206675.4,286047004.3,N
1518206695.2,286047002.2,N
1518206715.1,286047000.1,N
1518206716.0,286047000.1,N
1518206735.8,286047000.7,N
1518206755.6,286046999.2,N
1518206775.5,286047000.5,N
1518206795.3,286047000.6,N
1518206815.1,286046996.5,N
1518206835.9,286046998.7,N
1518206855.7,286046998.7,N
1518206875.6,286046998.8,N
1518206895.4,286047000.3,N
1518206915.2,286047001.5,N
1518206935.1,286047003.6,N
1518206936.0,286047003.6,N
1518206955.8,286047002.5,N
1518206975.7,286047000.3,N
1518206995.8,286046999.9,N
1518207015.7,286047000.5,N
1518207035.5,286046999.5,N
1518207055.3,286046998.5,N
1518207075.2,286046998.6,N
1518207095.0,286047000.7,N
1518207095.9,286047000.7,N
1518207115.8,286046998.2,N
1518207135.6,286047002.3,N
1518207155.4,286046999.9,N
1518207175.3,286047002.8,N
1518207195.1,286047002.5,N
1518207215.8,286047003.5,N
1518207235.7,286047001.8,N
1518207255.5,286047004.2,N
1518207275.4,286047005.8,Y
1518207295.2,286047001.7,P
1518207315.0,286047001.4,N
1518207315.9,286047001.4,P
1518207335.8,286047002.0,Y
1518207355.6,286047002.8,P
1518207375.5,286047002.4,P
1518207395.3,286047000.1,N
1518207415.1,286046998.4,N
1518207435.9,286046998.3,N
1518207455.7,286047000.7,N
1518207475.5,286047002.7,N
1518207495.4,286047002.6,N
1518207515.2,286046998.6,N
1518207535.1,286046998.1,N
1518207536.0,286046998.1,N
1518207555.8,286046999.7,N
1518207575.6,286046998.5,N
1518207595.6,286046999.4,N
1518207615.4,286046996.5,N
1518207635.3,286047000.4,N
1518207655.1,286046999.9,N
1518207675.7,286046999.9,N
1518207695.5,286046998.6,N
1518207715.3,286047000.6,N
1518207735.2,286046999.4,N
1518207755.0,286046997.0,N
1518207755.9,286046997.0,N
1518207775.7,286046999.5,N
1518207795.6,286046999.1,N
1518207815.4,286046998.5,N
1518207835.3,286046997.3,N
1518207855.1,286046997.0,N
1518207875.8,286046998.7,N
1518207895.7,286046998.6,N
1518207915.5,286047000.4,N
1518207935.4,286047000.2,N
1518207955.2,286047000.7,N
1518207975.0,286047002.4,N
1518207975.9,286047002.4,N
1518207995.8,286046998.3,N
1518208015.6,286046999.6,N
1518208035.4,286046999.3,N
1518208055.3,286046998.9,N
1518208075.1,286047000.4,N
1518208095.9,286046999.8,N
1518208115.7,286047000.4,N
1518208135.5,286047002.7,N
1518208155.4,286046998.1,N
1518208175.2,286047000.0,N
1518208195.0,286046998.5,N
1518208195.9,286046998.5,N
1518208215.8,286046998.4,N
1518208235.6,286047000.1,N
1518208255.5,286047004.3,N
1518208275.3,286047003.7,N
1518208295.1,286047001.3,N
1518208315.9,286047004.3,N
1518208335.7,286047004.2,N
1518208355.5,286047002.3,N
1518208375.4,286047000.5,N
1518208395.2,286047000.5,N
1518208415.1,286047001.9,N
1518208416.0,286047001.9,N
1518208435.8,286047002.0,N
1518208455.6,286047000.3,N
1518208475.5,286047000.4,N
1518208495.3,286047000.4,N
1518208515.1,286046998.2,N
1518208535.9,286047001.2,N
1518208555.7,286046998.5,N
1518208575.6,286047000.6,N
1518208595.4,286047002.1,N
1518208615.2,286046999.7,N
1518208635.1,286046998.8,N
1518208636.0,286046998.8,N
1518208655.8,286046998.5,N
1518208675.7,286046999.1,N
1518208695.5,286046996.8,N
1518208715.3,286046996.6,N
1518208735.2,286046995.0,N
1518208755.9,286046997.0,N
1518208775.7,286046998.7,N
1518208795.6,286046998.3,N
1518208815.4,286047002.3,N
1518208835.3,286047001.8,N
1518208855.1,286047000.7,N
1518208856.0,286047000.7,N
1518208875.8,286047001.0,N
1518208895.7,286047001.2,N
1518208915.5,286047002.7,N
1518208935.3,286047002.2,N
1518208955.2,286047000.7,N
1518208975.0,286046998.1,N
1518208975.9,286046998.1,N
1518208995.8,286047001.2,N
1518209015.6,286047000.1,N
1518209035.4,286046999.8,N
1518209055.3,286047000.2,N
1518209075.1,286047000.8,N
1518209095.8,286047001.8,N
1518209115.7,286047000.4,N
1518209135.5,286047002.5,N
1518209155.4,286047000.2,N
1518209175.2,286046998.9,N
1518209195.0,286047000.6,N
1518209195.9,286047000.6,N
1518209215.8,286047002.7,N
1518209235.2,286047002.7,N
1518209255.0,286047002.1,N
1518209255.9,286047002.1,N
1518209275.8,286047002.7,N
1518209295.6,286047000.8,N
1518209315.4,286046999.7,N
1518209335.3,286047002.7,N
1518209355.1,286047002.6,N
1518209375.9,286047000.0,N
1518209395.7,286046998.3,N
1518209415.5,286046998.6,N
1518209435.4,286046998.7,N
1518209455.5,286046998.7,N
1518209475.3,286046999.2,N
1518209495.1,286047001.0,N
1518209515.9,286046998.2,N
1518209535.7,286047000.4,N
1518209555.5,286047002.6,N
1518209575.4,286047002.4,N
1518209595.2,286047001.6,N
1518209615.1,286047000.0,N
1518209616.0,286047000.0,N
1518209635.8,286046998.1,N
1518209655.6,286047001.1,N
1518209675.5,286047002.0,N
1518209695.3,286047002.0,N
1518209715.2,286047000.4,N
1518209735.9,286047000.7,N
1518209755.7,286047002.7,N
1518209775.6,286047002.2,N
1518209795.4,286047002.4,N
1518209815.3,286047000.5,N
1518209835.1,286047001.2,N
1518209836.0,286047001.2,N
1518209855.8,286046999.7,N
1518209875.7,286047002.7,N
1518209895.5,286047001.0,N
1518209915.3,286046998.3,N
1518209935.2,286046997.7,N
1518209955.0,286046997.4,N
1518209955.9,286046997.4,N
1518209975.8,286046996.6,N
1518209995.6,286046994.9,N
